GW1795 Weather Reports


time (UTC)temp
F
wind
direction
speed
knots
gust
knots
rain 1hr
in
rain 24hr
in
rain mn
in
humidity
%
barometer
mb
20240614131218 72 324 2.6 2.6 0.00 0.00 0.00 69 1015.1
20240614130716 73 317 2.6 5.2 0.00 0.00 0.00 68 1015.2
20240614130212 72 298 2.6 2.6 0.00 0.00 0.00 69 1015.1
20240614125710 71 267 0.0 0.9 0.00 0.00 0.00 72 1015.4
20240614125209 71 323 1.7 2.6 0.00 0.00 0.00 71 1015.3
20240614124702 71 315 2.6 4.3 0.00 0.00 0.00 72 1015.1
20240614124200 71 310 4.3 5.2 0.00 0.00 0.00 72 1015.2
20240614123658 71 311 4.3 5.2 0.00 0.00 0.00 73 1015.4
20240614123157 71 336 2.6 5.2 0.00 0.00 0.00 72 1015.5
20240614122656 71 253 2.6 7.0 0.00 0.00 0.00 73 1015.4
20240614122154 70 316 2.6 2.6 0.00 0.00 0.00 74 1015.3
20240614121652 71 258 1.7 4.3 0.00 0.00 0.00 74 1015.5
20240614121150 69 268 0.0 0.9 0.00 0.00 0.00 76 1015.4
20240614120649 70 328 3.5 4.3 0.00 0.00 0.00 76 1015.2
20240614120148 69 323 5.2 7.0 0.00 0.00 0.00 79 1015.4
20240614115647 67 307 1.7 1.7 0.00 0.00 0.00 82 1015.3
20240614115145 68 329 0.0 0.9 0.00 0.00 0.00 84 1015.2
20240614114644 67 301 0.0 1.7 0.00 0.00 0.00 86 1015.1
20240614114142 67 306 0.9 0.9 0.00 0.00 0.00 85 1015.3
20240614113640 67 293 0.9 0.9 0.00 0.00 0.00 86 1015.3
20240614113138 67 262 0.0 0.0 0.00 0.00 0.00 86 1015.3
20240614112635 67 250 0.0 0.0 0.00 0.00 0.00 87 1015.4
20240614112135 67 249 0.0 0.0 0.00 0.00 0.00 87 1015.3
20240614111633 67 249 0.0 0.0 0.00 0.00 0.00 87 1015.3
20240614111132 67 250 0.0 0.0 0.00 0.00 0.00 86 1015.2
20240614110631 68 250 0.0 0.0 0.00 0.00 0.00 86 1015.4
20240614110131 68 250 0.0 0.0 0.00 0.00 0.00 86 1015.0
20240614105624 68 248 0.0 0.0 0.00 0.00 0.00 85 1015.0
20240614105123 68 197 0.9 1.7 0.00 0.00 0.00 85 1014.8
20240614104621 68 218 0.9 1.7 0.00 0.00 0.00 85 1014.7
20240614104121 68 235 0.0 1.7 0.00 0.00 0.00 84 1014.7
20240614103621 68 224 0.9 0.9 0.00 0.00 0.00 84 1014.5
20240614103120 68 218 1.7 1.7 0.00 0.00 0.00 83 1014.8
20240614102619 68 280 0.0 0.0 0.00 0.00 0.00 82 1014.7
20240614102117 68 251 0.0 0.0 0.00 0.00 0.00 81 1014.7
20240614101616 68 256 0.0 0.9 0.00 0.00 0.00 81 1014.5
20240614101114 68 261 0.0 0.9 0.00 0.00 0.00 80 1014.7
20240614100612 69 241 0.9 1.7 0.00 0.00 0.00 79 1014.8
20240614100112 69 348 0.9 4.3 0.00 0.00 0.00 77 1014.5
20240614095610 70 331 3.5 4.3 0.00 0.00 0.00 74 1014.5
20240614095109 70 285 7.8 8.7 0.00 0.00 0.00 72 1014.3
20240614094609 71 290 1.7 1.7 0.00 0.00 0.00 72 1014.5
20240614094107 72 301 1.7 2.6 0.00 0.00 0.00 68 1014.1
20240614093605 72 289 1.7 1.7 0.00 0.00 0.00 66 1013.9
20240614093103 72 235 0.9 1.7 0.00 0.00 0.00 66 1014.0
20240614092600 72 265 0.0 0.9 0.00 0.00 0.00 66 1014.0
20240614092100 72 299 1.7 1.7 0.00 0.00 0.00 65 1014.0
20240614091559 73 290 0.9 2.6 0.00 0.00 0.00 65 1013.8
20240614091059 73 267 0.0 0.9 0.00 0.00 0.00 65 1013.8
20240614090556 73 244 0.0 0.9 0.00 0.00 0.00 65 1013.8
20240614090056 73 285 0.9 1.7 0.00 0.00 0.00 64 1013.9
20240614085555 73 271 0.9 4.3 0.00 0.00 0.00 64 1014.0
20240614085054 73 296 2.6 4.3 0.00 0.00 0.00 64 1014.0
20240614084552 73 281 0.9 1.7 0.00 0.00 0.00 64 1014.1
20240614084052 73 274 0.9 2.6 0.00 0.00 0.00 64 1014.1
20240614083549 73 236 0.9 1.7 0.00 0.00 0.00 65 1014.2
20240614083048 73 227 0.9 1.7 0.00 0.00 0.00 64 1014.1
20240614082547 73 259 0.0 0.9 0.00 0.00 0.00 64 1014.1
20240614082045 74 282 0.9 2.6 0.00 0.00 0.00 63 1014.4
20240614081543 74 305 0.9 1.7 0.00 0.00 0.00 63 1014.4
20240614081043 74 272 0.0 1.7 0.00 0.00 0.00 62 1014.1
20240614080541 74 263 2.6 2.6 0.00 0.00 0.00 62 1014.1
20240614080040 74 283 2.6 5.2 0.00 0.00 0.00 61 1014.1
20240614075539 75 286 1.7 5.2 0.00 0.00 0.00 61 1014.1
20240614075038 75 259 0.0 4.3 0.00 0.00 0.00 61 1014.3
20240614074536 74 251 2.6 5.2 0.00 0.00 0.00 61 1014.3
20240614074034 74 258 4.3 5.2 0.00 0.00 0.00 61 1014.3
20240614073533 74 225 0.0 1.7 0.00 0.00 0.00 63 1014.3
20240614073031 74 275 0.9 2.6 0.00 0.00 0.00 63 1013.9
20240614072531 73 246 0.9 1.7 0.00 0.00 0.00 63 1013.8
20240614072029 73 304 1.7 1.7 0.00 0.00 0.00 63 1013.9
20240614071528 73 278 0.0 0.9 0.00 0.00 0.00 64 1013.8
20240614071028 73 265 1.7 2.6 0.00 0.00 0.00 65 1013.8
20240614070526 73 259 1.7 2.6 0.00 0.00 0.00 65 1013.7
20240614070026 73 255 0.9 1.7 0.00 0.00 0.00 65 1013.6
20240614065525 73 282 0.9 1.7 0.00 0.00 0.00 65 1013.6
20240614065026 73 293 0.9 1.7 0.00 0.00 0.00 64 1013.5
20240614064522 73 237 1.7 1.7 0.00 0.00 0.00 64 1013.4
20240614064021 73 242 0.9 0.9 0.00 0.00 0.00 64 1013.4
20240614063520 73 251 0.0 1.7 0.00 0.00 0.00 64 1013.4
20240614063019 74 213 0.9 1.7 0.00 0.00 0.00 63 1013.5
20240614062517 74 252 0.0 1.7 0.00 0.00 0.00 63 1013.8
20240614062016 73 227 2.6 2.6 0.00 0.00 0.00 63 1013.8
20240614061512 74 257 0.9 1.7 0.00 0.00 0.00 63 1013.7
20240614061010 74 238 0.9 1.7 0.00 0.00 0.00 63 1013.6
20240614060509 74 186 2.6 2.6 0.00 0.00 0.00 63 1013.7
20240614060006 74 226 1.7 1.7 0.00 0.00 0.00 63 1013.9
20240614055505 74 224 0.0 0.9 0.00 0.00 0.00 63 1014.0
20240614055004 74 224 1.7 2.6 0.00 0.00 0.00 62 1014.1
20240614054501 74 220 0.0 1.7 0.00 0.00 0.00 63 1014.1
20240614054001 74 237 0.9 1.7 0.00 0.00 0.00 63 1014.0
20240614053459 74 206 1.7 2.6 0.00 0.00 0.00 63 1014.0
20240614052958 74 211 1.7 4.3 0.00 0.00 0.00 63 1014.1
20240614052456 74 227 0.9 1.7 0.00 0.00 0.00 62 1014.2
20240614051956 74 202 0.9 2.6 0.00 0.00 0.00 63 1014.1
20240614051454 74 230 0.9 2.6 0.00 0.00 0.00 62 1014.3
20240614050953 75 229 0.9 2.6 0.00 0.00 0.00 62 1014.2
20240614050453 74 231 1.7 1.7 0.00 0.00 0.00 62 1014.3
20240614045951 74 222 0.9 1.7 0.00 0.00 0.00 62 1014.4
20240614045449 75 223 0.9 1.7 0.00 0.00 0.00 62 1014.4
20240614044948 75 226 0.9 2.6 0.00 0.00 0.00 61 1014.4
20240614044447 75 213 2.6 2.6 0.00 0.00 0.00 61 1014.3
20240614043948 75 229 0.9 0.9 0.00 0.00 0.00 62 1014.5
20240614043446 75 244 0.9 1.7 0.00 0.00 0.00 62 1014.5
20240614042943 75 230 0.9 0.9 0.00 0.00 0.00 61 1014.7
20240614042442 74 240 0.0 0.9 0.00 0.00 0.00 62 1014.8
20240614041940 74 221 0.9 1.7 0.00 0.00 0.00 62 1014.8
20240614041437 73 246 0.0 0.9 0.00 0.00 0.00 67 1014.8
20240614040935 71 246 0.0 0.0 0.00 0.00 0.00 68 1014.8
20240614040435 71 243 0.0 0.9 0.00 0.00 0.00 74 1014.9
20240614035935 71 248 0.0 0.0 0.00 0.00 0.00 77 1014.9
20240614035434 72 265 0.0 0.0 0.00 0.00 0.00 77 1014.9
20240614034933 72 266 0.0 0.0 0.00 0.00 0.00 69 1014.7
20240614034432 73 266 0.0 0.0 0.00 0.00 0.00 66 1014.7
20240614033931 73 253 0.0 0.9 0.00 0.00 0.00 67 1014.7
20240614033430 73 245 0.0 0.0 0.00 0.00 0.00 68 1014.4
20240614032928 74 245 0.0 0.0 0.00 0.00 0.00 67 1014.3
20240614032427 75 243 0.0 0.9 0.00 0.00 0.00 65 1014.2
20240614031926 75 300 0.0 0.0 0.00 0.00 0.00 61 1014.1
20240614031425 76 305 0.0 0.9 0.00 0.00 0.00 60 1014.0
20240614030924 76 302 1.7 2.6 0.00 0.00 0.00 59 1014.0
20240614030422 76 262 0.9 2.6 0.00 0.00 0.00 60 1013.3
20240614025920 77 235 2.6 4.3 0.00 0.00 0.00 60 1013.2
20240614025419 77 175 2.6 4.3 0.00 0.00 0.00 60 1012.9
20240614024917 77 194 1.7 2.6 0.00 0.00 0.00 58 1013.7
20240614024416 77 194 1.7 2.6 0.00 0.00 0.00 57 1014.1
20240614023915 77 196 1.7 1.7 0.00 0.00 0.00 57 1014.3
20240614023414 78 223 1.7 2.6 0.00 0.00 0.00 55 1014.7
20240614022912 78 220 0.9 1.7 0.00 0.00 0.00 55 1014.6
20240614022411 78 213 0.9 1.7 0.00 0.00 0.00 55 1014.6
20240614021910 78 223 3.5 4.3 0.00 0.00 0.00 53 1014.8
20240614021409 78 221 0.9 2.6 0.00 0.00 0.00 53 1015.0
20240614020907 78 220 0.9 0.9 0.00 0.00 0.00 53 1015.3
20240614020405 78 237 0.0 2.6 0.00 0.00 0.00 53 1015.2
20240614015903 79 240 0.9 0.9 0.00 0.00 0.00 53 1015.1
20240614015401 79 235 0.0 1.7 0.00 0.00 0.00 53 1015.4
20240614014901 78 236 0.0 0.9 0.00 0.00 0.00 54 1015.3
20240614014358 78 255 0.9 2.6 0.00 0.00 0.00 54 1015.5
20240614013858 78 237 0.0 0.0 0.00 0.00 0.00 55 1015.4
20240614013357 78 237 0.0 0.0 0.00 0.00 0.00 53 1015.2
20240614012856 78 237 0.0 0.9 0.00 0.00 0.00 53 1014.9
20240614012355 79 235 0.0 0.0 0.00 0.00 0.00 52 1015.0
20240614011855 79 227 0.0 0.9 0.00 0.00 0.00 51 1015.0
20240614011353 80 234 0.0 0.9 0.00 0.00 0.00 51 1015.0
20240614010852 80 224 0.0 0.9 0.00 0.00 0.00 50 1015.0
20240614010350 81 221 0.9 1.7 0.00 0.00 0.00 50 1015.1
20240614005848 80 233 0.9 0.9 0.00 0.00 0.00 50 1015.0
20240614005348 81 243 0.9 0.9 0.00 0.00 0.00 50 1015.2
20240614004846 81 251 0.0 0.9 0.00 0.00 0.00 50 1015.2
20240614004345 81 219 1.7 1.7 0.00 0.00 0.00 49 1014.9
20240614003843 81 245 2.6 4.3 0.00 0.00 0.00 48 1014.8
20240614003340 82 229 0.9 1.7 0.00 0.00 0.00 48 1014.9
20240614002839 82 201 4.3 5.2 0.00 0.00 0.00 47 1014.7
20240614002336 82 225 1.7 2.6 0.00 0.00 0.00 48 1015.0
20240614001834 82 227 1.7 2.6 0.00 0.00 0.00 48 1014.9
20240614001333 82 237 0.9 2.6 0.00 0.00 0.00 48 1015.0
20240614000832 82 240 1.7 2.6 0.00 0.00 0.00 47 1015.0
20240614000328 82 254 0.9 4.3 0.00 0.00 0.00 46 1014.7
20240613235827 83 245 0.9 5.2 0.00 0.00 0.00 46 1015.0
20240613235326 83 264 0.9 4.3 0.00 0.00 0.00 46 1015.0
20240613234825 83 205 2.6 4.3 0.00 0.00 0.00 45 1015.1
20240613234325 83 231 2.6 6.1 0.00 0.00 0.00 45 1015.1
20240613233823 84 199 4.3 7.8 0.00 0.00 0.00 44 1015.0
20240613233322 83 158 0.9 6.1 0.00 0.00 0.00 44 1015.3
20240613232820 84 214 2.6 4.3 0.00 0.00 0.00 45 1015.2
20240613232320 84 180 3.5 4.3 0.00 0.00 0.00 45 1015.1
20240613231818 83 217 3.5 5.2 0.00 0.00 0.00 44 1014.9
20240613231315 84 211 4.3 6.1 0.00 0.00 0.00 45 1014.8
20240613230814 85 193 1.7 4.3 0.00 0.00 0.00 43 1014.7
20240613230312 85 255 0.9 4.3 0.00 0.00 0.00 42 1014.3
20240613225810 85 273 1.7 6.1 0.00 0.00 0.00 43 1014.2
20240613225308 85 256 4.3 6.1 0.00 0.00 0.00 43 1014.3
20240613224800 85 216 2.6 8.7 0.00 0.00 0.00 41 1014.1
20240613224252 85 218 2.6 6.1 0.00 0.00 0.00 40 1014.1
20240613223751 85 256 4.3 6.1 0.00 0.00 0.00 40 1014.1
20240613223250 85 233 1.7 2.6 0.00 0.00 0.00 41 1014.1
20240613222749 85 237 5.2 7.0 0.00 0.00 0.00 41 1014.0
20240613222248 85 257 2.6 6.1 0.00 0.00 0.00 39 1014.2
20240613221746 86 124 5.2 8.7 0.00 0.00 0.00 39 1014.3
20240613221245 85 222 1.7 6.1 0.00 0.00 0.00 42 1014.3
20240613220743 85 219 3.5 7.0 0.00 0.00 0.00 40 1014.4
20240613220241 85 228 5.2 7.0 0.00 0.00 0.00 41 1014.2
20240613215740 85 236 7.8 9.6 0.00 0.00 0.00 40 1014.3
20240613215239 84 167 0.9 5.2 0.00 0.00 0.00 42 1014.1
20240613214738 85 234 2.6 7.0 0.00 0.00 0.00 41 1014.5
20240613214237 85 272 2.6 6.1 0.00 0.00 0.00 41 1014.2
20240613213735 84 283 1.7 5.2 0.00 0.00 0.00 41 1014.5
20240613213234 85 236 3.5 7.0 0.00 0.00 0.00 42 1014.6
20240613212734 85 215 2.6 7.0 0.00 0.00 0.00 42 1014.8
20240613212232 84 242 1.7 5.2 0.00 0.00 0.00 44 1014.7
20240613211732 84 214 2.6 7.8 0.00 0.00 0.00 41 1014.8
20240613211230 84 253 1.7 7.0 0.00 0.00 0.00 43 1014.6
20240613210729 84 245 5.2 9.6 0.00 0.00 0.00 42 1014.9
20240613210229 84 164 3.5 6.1 0.00 0.00 0.00 44 1014.9
20240613205726 85 249 5.2 7.8 0.00 0.00 0.00 41 1014.9
20240613205224 85 189 0.9 8.7 0.00 0.00 0.00 41 1015.0
20240613204722 84 317 1.7 4.3 0.00 0.00 0.00 41 1014.9
20240613204221 85 243 4.3 5.2 0.00 0.00 0.00 41 1015.2
20240613203720 84 280 1.7 5.2 0.00 0.00 0.00 45 1015.3
20240613203218 84 221 3.5 7.0 0.00 0.00 0.00 43 1015.2
20240613202716 85 225 3.5 12.2 0.00 0.00 0.00 42 1015.3
20240613202215 85 282 3.5 6.1 0.00 0.00 0.00 42 1015.3
20240613201714 84 251 3.5 7.0 0.00 0.00 0.00 43 1015.1
20240613201213 85 226 4.3 9.6 0.00 0.00 0.00 42 1015.2
20240613200712 84 274 3.5 7.8 0.00 0.00 0.00 43 1015.4
20240613200210 83 246 1.7 5.2 0.00 0.00 0.00 44 1015.3
20240613195708 84 161 4.3 7.0 0.00 0.00 0.00 41 1015.4
20240613195206 83 228 1.7 4.3 0.00 0.00 0.00 43 1015.4
20240613194705 83 241 1.7 7.0 0.00 0.00 0.00 42 1015.7
20240613194203 83 236 0.9 5.2 0.00 0.00 0.00 44 1015.9
20240613193702 83 189 2.6 7.0 0.00 0.00 0.00 44 1015.9
20240613193202 82 186 4.3 6.1 0.00 0.00 0.00 45 1015.9
20240613192700 82 215 2.6 5.2 0.00 0.00 0.00 44 1015.8
20240613192159 82 187 2.6 4.3 0.00 0.00 0.00 45 1015.8
20240613191658 83 214 3.5 5.2 0.00 0.00 0.00 45 1015.8
20240613191157 82 217 5.2 9.6 0.00 0.00 0.00 43 1016.0
20240613190656 83 206 7.8 12.2 0.00 0.00 0.00 43 1015.7
20240613190154 82 233 2.6 7.0 0.00 0.00 0.00 43 1016.0
20240613185653 83 197 4.3 8.7 0.00 0.00 0.00 42 1015.9
20240613185153 82 215 2.6 7.0 0.00 0.00 0.00 44 1016.0
20240613184652 81 246 4.3 5.2 0.00 0.00 0.00 43 1016.1
20240613184150 83 223 5.2 7.8 0.00 0.00 0.00 43 1015.9
20240613183649 82 214 4.3 7.8 0.00 0.00 0.00 42 1016.2
20240613183148 82 261 3.5 5.2 0.00 0.00 0.00 44 1016.2
20240613182647 82 244 2.6 6.1 0.00 0.00 0.00 48 1016.2
20240613182146 81 158 1.7 5.2 0.00 0.00 0.00 45 1016.1
20240613181645 82 201 4.3 5.2 0.00 0.00 0.00 43 1016.1
20240613181144 82 303 4.3 6.1 0.00 0.00 0.00 44 1016.1
20240613180642 81 177 4.3 6.1 0.00 0.00 0.00 43 1016.1
20240613180140 81 232 4.3 7.0 0.00 0.00 0.00 43 1016.2
20240613175639 82 214 6.1 8.7 0.00 0.00 0.00 43 1016.2
20240613175137 82 210 3.5 5.2 0.00 0.00 0.00 45 1016.0
20240613174636 81 230 1.7 5.2 0.00 0.00 0.00 49 1016.1
20240613174134 80 202 2.6 4.3 0.00 0.00 0.00 45 1016.1
20240613173634 81 237 4.3 6.1 0.00 0.00 0.00 45 1016.1
20240613173132 81 215 4.3 7.0 0.00 0.00 0.00 46 1016.2
20240613172631 81 187 4.3 5.2 0.00 0.00 0.00 44 1016.1
20240613172130 80 268 2.6 6.1 0.00 0.00 0.00 47 1016.2
20240613171629 81 238 2.6 8.7 0.00 0.00 0.00 48 1016.1
20240613171128 79 215 0.9 4.3 0.00 0.00 0.00 47 1016.2
20240613170626 80 205 3.5 6.1 0.00 0.00 0.00 46 1016.3
20240613170125 80 282 0.9 4.3 0.00 0.00 0.00 47 1016.3
20240613165624 79 235 3.5 7.0 0.00 0.00 0.00 47 1016.2
20240613165122 80 258 4.3 7.8 0.00 0.00 0.00 47 1016.2
20240613164622 79 279 2.6 4.3 0.00 0.00 0.00 51 1016.4
20240613164121 79 221 2.6 4.3 0.00 0.00 0.00 49 1016.7
20240613163620 79 227 4.3 7.0 0.00 0.00 0.00 46 1016.5
20240613163119 79 235 2.6 6.1 0.00 0.00 0.00 49 1016.8
20240613162611 78 212 0.9 7.0 0.00 0.00 0.00 49 1016.9
20240613162110 79 248 4.3 8.7 0.00 0.00 0.00 47 1017.0
20240613161609 77 297 1.7 2.6 0.00 0.00 0.00 50 1017.1
20240613161108 78 197 3.5 7.0 0.00 0.00 0.00 48 1017.4
20240613160607 76 236 1.7 1.7 0.00 0.00 0.00 50 1017.3
20240613160105 77 228 1.7 2.6 0.00 0.00 0.00 50 1017.3
20240613155604 78 237 5.2 7.0 0.00 0.00 0.00 48 1017.4
20240613155103 78 243 4.3 6.1 0.00 0.00 0.00 49 1017.4
20240613154602 76 253 0.9 2.6 0.00 0.00 0.00 55 1017.7
20240613154100 76 233 0.9 2.6 0.00 0.00 0.00 53 1017.7
20240613153559 76 246 1.7 4.3 0.00 0.00 0.00 54 1017.7
20240613153058 76 228 2.6 5.2 0.00 0.00 0.00 54 1017.7
20240613152556 75 236 1.7 5.2 0.00 0.00 0.00 53 1017.6
20240613152055 74 250 1.7 2.6 0.00 0.00 0.00 56 1017.5
20240613151554 74 220 2.6 4.3 0.00 0.00 0.00 57 1017.5
20240613151053 75 203 3.5 6.1 0.00 0.00 0.00 59 1017.5
20240613150552 74 179 2.6 5.2 0.00 0.00 0.00 59 1017.7
20240613150050 73 219 2.6 5.2 0.00 0.00 0.00 60 1017.6
20240613145549 73 208 4.3 5.2 0.00 0.00 0.00 60 1017.8
20240613145049 73 184 3.5 5.2 0.00 0.00 0.00 61 1017.6
20240613144549 73 186 4.3 5.2 0.00 0.00 0.00 62 1017.7
20240613144048 73 226 3.5 6.1 0.00 0.00 0.00 60 1017.7
20240613143547 71 201 3.5 4.3 0.00 0.00 0.00 62 1017.6
20240613143045 71 176 3.5 5.2 0.00 0.00 0.00 63 1017.7
20240613142544 72 223 2.6 4.3 0.00 0.00 0.00 62 1017.6
20240613142043 72 252 1.7 4.3 0.00 0.00 0.00 63 1017.6
20240613141540 72 210 2.6 2.6 0.00 0.00 0.00 62 1017.8
20240613141038 72 236 1.7 2.6 0.00 0.00 0.00 62 1017.8
20240613140538 72 242 0.9 1.7 0.00 0.00 0.00 62 1017.7
20240613140036 73 216 1.7 6.1 0.00 0.00 0.00 60 1017.9
20240613135535 73 233 0.9 1.7 0.00 0.00 0.00 61 1017.9
20240613135035 73 233 2.6 4.3 0.00 0.00 0.00 60 1017.7
20240613134533 73 256 1.7 4.3 0.00 0.00 0.00 60 1017.8
20240613134032 73 229 1.7 2.6 0.00 0.00 0.00 60 1017.8
20240613133529 72 264 0.9 1.7 0.00 0.00 0.00 60 1017.6
20240613133028 71 253 2.6 5.2 0.00 0.00 0.00 59 1017.4
20240613132527 71 195 3.5 6.1 0.00 0.00 0.00 61 1017.5
20240613132026 69 218 0.9 4.3 0.00 0.00 0.00 64 1017.7
20240613131526 70 230 1.7 1.7 0.00 0.00 0.00 67 1017.5